* Astronomy

Members Login
Username 
 
Password 
    Remember Me  
Post Info TOPIC: Asteroid 2013 BM76


L

Posts: 131433
Date:
Asteroid 2013 BM76
Permalink  
 


Orbital elements:
2013 BM76                                                Earth MOID = 0.1347 AU
Epoch 2014 Dec. 9.0 TT = JDT 2457000.5                  MPC
M  12.58784              (2000.0)            P               Q
n   0.50373761     Peri.   29.51047     +0.96563643     +0.16744586
a   1.5643471      Node   319.27760     -0.25437482     +0.76573307
e   0.8070991      Incl.   17.73845     +0.05328907     +0.62097887
P   1.96           H   20.4           G   0.15           U   5

MPEC 2015 - B03



__________________
Page 1 of 1  sorted by
 
Quick Reply

Please log in to post quick replies.



Create your own FREE Forum
Report Abuse
Powered by ActiveBoard